Regional Weather Roundup
Issued by NWS

Home | Current Version | Previous Version | Text Only | Print | Product List | Glossary On
Versions: 1 2 3 4 5 6 7 8 9 10 11 12 13 14 15 16 17 18 19 20 21 22 23 24 25 26 27 28 29 30 31 32 33 34 35 36 37 38 39 40 41 42 43 44 45 46 47 48 49 50
000
ASUS43 KMPX 281001
RWRMN
WEATHER ROUNDUP FOR MINNESOTA
NATIONAL WEATHER SERVICE TWIN CITIES/CHANHASSEN MN
400 AM CST SAT FEB 28 2015


NOTE: "FAIR" INDICATES FEW OR NO CLOUDS BELOW 12,000 FEET WITH NO
SIGNIFICANT WEATHER AND/OR OBSTRUCTIONS TO VISIBILITY. N/A MEANS
CURRENT SKY AND/OR WEATHER CONDITIONS ARE NOT AVAILABLE.

MNZ060>063-068>070-281100-
   Twin Cities Metro

CITY           SKY/WX    TMP DP  RH WIND       PRES   REMARKS
TWIN CITIES    CLEAR      1  -5  75 SE3       30.52F
ST PAUL        CLEAR     -2  -5  87 S7        30.55S WCI -15
CRYSTAL        CLEAR      3  -4  72 S8        30.50S WCI -10
BLAINE         CLEAR      3  -2  78 S7        30.49F WCI  -9
LAKEVILLE      FAIR      -8  -9  92 S2        30.51S
EDEN PRAIRIE   CLEAR     -1  -6  79 S5        30.50S WCI -11
SOUTH ST PAUL  FAIR       0  -5  81 CALM      30.53S
LAKE ELMO      FAIR       0  -4  85 S5        30.52F WCI -10
$$
MNZ001>005-007-008-013>017-022>024-027-028-281100-
   Northwest Minnesota

CITY           SKY/WX    TMP DP  RH WIND       PRES   REMARKS
BEMIDJI        PTCLDY    -1  -6  80 S5        30.29F HAZE    WCI -11
HALLOCK        PTCLDY     0  -8  71 SE14      30.24F WCI -19
ROSEAU         PTCLDY     1  -6  71 S13       30.25F WCI -16
WARROAD        PTCLDY     3  -4  72 CALM      30.26F
THIEF RVR FALL PTCLDY     1  -2  85 SE8       30.26F WCI -12
CROOKSTON      PTCLDY     5   0  78 S13       30.29F WCI -12
FOSSTON        PTCLDY     0  -6  78 S9        30.28F WCI -16
DETROIT LAKES  CLEAR      1  -2  85 S9        30.30F WCI -14
MOORHEAD       PTCLDY     7   1  78 SE14      30.30F WCI -10
PARK RAPIDS    PTCLDY    -1  -6  79 S9        30.31F WCI -16
MAHNOMEN       FAIR       6  -1  73 S15       30.28F WCI -12
$$
MNZ006-009>011-018-025>026-281100-
   North Central Minnesota

CITY           SKY/WX    TMP DP  RH WIND       PRES   REMARKS
BAUDETTE       PTCLDY    -1  -7  75 SW3       30.27F
FLAG ISLAND    MOCLDY    -6 -11  77 S9        30.25F WCI -22
INTL FALLS     PTCLDY    -3 -10  72 S5        30.31S WCI -13
WASKISH        PTCLDY     3  -2  78 CALM      30.29F
BIG FORK       CLEAR     -8 -11  84 SW3       30.33S
LONGVILLE      CLEAR     -6  -9  84 SE3       30.36S
GRAND RAPIDS   CLEAR     -2  -6  84 S9        30.34S WCI -18
CRANE LAKE     PTCLDY   -18 -24  76 CALM      30.37S
ORR            CLEAR     -2 -11  65 CALM      30.31S
COOK           CLEAR      0  -8  71 S3        30.35S
WALKER         FAIR       0  -5  78 S7        30.33F WCI -13
$$
MNZ012-019>021-037-281100-
   Northeast Minnesota

CITY           SKY/WX    TMP DP  RH WIND       PRES   REMARKS
DULUTH         CLEAR      1  -6  72 SW6       30.39S WCI -10
HIBBING        PTCLDY   -19 -25  73 CALM      30.37F
EVELETH        PTCLDY   -15 -22  70 CALM      30.38S
DULUTH HARBOR  CLEAR      1  -6  71 CALM      30.49S
TWO HARBORS    CLEAR      1  -8  66 CALM      30.40S
SILVER BAY     CLEAR     -2  -8  78 CALM      30.39S
GRAND MARAIS     N/A      3  -8  60 NW5       30.44R WCI  -6
G MARAIS ARPRT PTCLDY     1  -9  60 W8        30.31R WCI -12
$$
MNZ029>031-032-039>041-046>048-054>057-064-281100-
   West Central Minnesota

CITY           SKY/WX    TMP DP  RH WIND       PRES   REMARKS
FERGUS FALLS   PTCLDY     1  -4  78 SE10      30.37F WCI -14
WHEATON        PTCLDY     0  -6  78 SE14      30.35F WCI -19
MORRIS         CLEAR      0  -6  78 SE9       30.36S WCI -16
ALEXANDRIA     PTCLDY     2  -3  80 S12       30.35F WCI -15
ELBOW LAKE     FAIR       1  -4  81 S12       30.34S WCI -16
WADENA         PTCLDY    -8  -9  92 S3        30.34F
APPLETON       FAIR       1  -4  78 SE6       30.39S WCI -10
BENSON         CLEAR      0  -6  78 S6        30.39S WCI -12
ORTONVILLE       N/A     -2  -8  78 SE8       30.35F WCI -17
MADISON        CLEAR      0  -6  78 S7        30.38F WCI -13
WILLMAR        FAIR      -2  -8  78 SE5       30.42F WCI -12
$$
MNZ033>034-036-042>043-049>051-058-059-281100-
   Central Minnesota

CITY           SKY/WX    TMP DP  RH WIND       PRES   REMARKS
ST CLOUD       CLEAR     -3  -6  87 SE6       30.45F WCI -15
SAUK CENTRE    FAIR      -1  -5  82 SE8       30.39S WCI -15
PAYNESVILLE    CLEAR     -3  -6  84 SE8       30.42F WCI -17
AITKIN         CLEAR      0  -8  71 S5        30.38F WCI -10
PINE RIVER     CLEAR     -9 -15  77 E5        30.39F WCI -21
BRAINERD       CLEAR     -5  -8  87 S7        30.39F WCI -19
STAPLES        PTCLDY    -2  -6  84 CALM      30.36F
LONG PRAIRIE   FAIR       0  -4  85 SE6       30.38F WCI -12
LITTLE FALLS   PTCLDY     0  -4  85 SE3       30.42F
LITCHFIELD     CLEAR     -2  -6  84 CALM      30.45S
MAPLE LAKE     CLEAR      1  -3  85 S3        30.47F
$$
MNZ037-044-045-052-053-281100-
   East Central Minnesota

CITY           SKY/WX    TMP DP  RH WIND       PRES   REMARKS
PRINCETON      FAIR       0  -4  85 CALM      30.46S
MORA           CLEAR     -8 -13  77 CALM      30.48S
RUSH CITY      MOCLDY    -4  -7  86 CALM      30.49S
MOOSE LAKE     PTCLDY    -8 -11  84 CALM      30.43S
HINCKLEY       FAIR      -8 -11  84 CALM      30.47S
CLOQUET        PTCLDY     0  -6  78 SW6       30.41R WCI -12
MCGREGOR       CLEAR      0  -4  85 S5        30.41S WCI -10
$$
MNZ071>073-080-081-089-090-097-098-281100-
   Southwest Minnesota

CITY           SKY/WX    TMP DP  RH WIND       PRES   REMARKS
MONTEVIDEO     CLEAR      0  -6  78 S7        30.41F WCI -13
GRANITE FALLS  CLEAR     -3  -7  80 SE10      30.43F WCI -19
CANBY          CLEAR      9   0  68 SW8       30.38S WCI  -4
MARSHALL       FAIR       3  -2  78 SW17      30.39F WCI -17
REDWOOD FALLS  CLEAR     -5 -10  79 S7        30.44F WCI -19
OLIVIA         CLEAR     -4  -8  84 SE6       30.44S WCI -16
PIPESTONE      PTCLDY    -2  -8  78 S7        30.36R WCI -16
WINDOM         CLEAR      0  -6  78 S5        30.42S WCI -10
WORTHINGTON    CLEAR     21 -11  23 S13       30.41F WCI   9
JACKSON        CLEAR      1  -4  78 S12       30.43F WCI -15
TRACY          CLEAR      5  -1  74 S14       30.39F WCI -12
SLAYTON        CLEAR      2  -5  73 S10       30.38F WCI -14
$$
MNZ065>067-074>077-082>085-091>093-281100-
   South Central Minnesota

CITY           SKY/WX    TMP DP  RH WIND       PRES   REMARKS
MANKATO        PTCLDY    -4 -13  65 S8        30.49S WCI -19
NEW ULM        CLEAR     -4  -9  77 S9        30.47S WCI -20
ST JAMES       CLEAR     -2  -8  78 S6        30.48S WCI -14
FAIRMONT       PTCLDY    -8 -11  84 S8        30.46R WCI -23
GLENCOE        CLEAR      0  -4  85 S6        30.48S WCI -12
FARIBAULT      PTCLDY    -6  -9  84 S5        30.51R WCI -17
OWATONNA       PTCLDY    -2  -8  78 SE12      30.50S WCI -20
ALBERT LEA     MOCLDY    -6  -9  84 S5        30.49F WCI -17
$$
MNZ078>079-086>088-094>096-281100-
   Southeast Minnesota

CITY           SKY/WX    TMP DP  RH WIND       PRES   REMARKS
ROCHESTER      PTCLDY   -11 -15  82 S10       30.50S WCI -30
RED WING       PTCLDY    -6 -11  77 CALM      30.55S
STANTON        PTCLDY    -2  -7  78 S5        30.51S WCI -12
DODGE CENTER   PTCLDY    -9 -15  77 S5        30.49R WCI -21
WINONA         PTCLDY    -6  -9  84 CALM      30.60F
AUSTIN         MOCLDY    -9 -13  84 CALM      30.51S
PRESTON        MOCLDY   -10 -14  80 S5        30.52S WCI -21
$$
ABBREVIATIONS USED IN REMARKS
   TC - TEMPERATURES IN CELSIUS
  WCI - WIND CHILL INDEX
   HX - HEAT INDEX
  VSB - VISIBILITY
$$



USA.gov is the U.S. government's official web portal to all federal, state and local government web resources and services.